COSMOS 2251 DEB, 34317

Orbit data source: Space-Track

COSMOS 2251 DEB, 34317 is space debris in LEO originally from a launch on Wed, 16 Jun 1993 UTC launched from the Plesetsk Missile And Space Complex (PKMTR). The debris from Iridium 33, an American commercial communications satellite, has been tracked extensively since its accidental collision with the defunct Russian satellite Cosmos 2251 in 2009. This event, occurring at high speed in low Earth orbit (LEO), generated thousands of pieces of space debris, significantly increasing the risk of further collisions. The Iridium 33 debris cloud has impacted space traffic management and orbital debris mitigation strategies, making it a subject of ongoing study in space situational awareness.

Loading next visibility...
Identifier
34317, 1993-036NP
Orbit
LEO
Country
Flag of CISCIS
Related business
Manufacturer
Unknown
Mission
Spacecraft
Bus & Motor
Unknown
Mass
Unknown
Launch date (UTC)
1993-06-16 (33 years ago)
Launch vehicle
Unknown
Launch site
Plesetsk Missile And Space Complex (PKMTR)
Object type
Payload
Rocket body
Debris
Shape & HBR
Unknown shape, 0.1 m
Radar Cross Section
Small (<0.1 m²)

Expand to show TLE details & history
Last TLE update: 2 hours ago

TLE from 2 hours ago
0 COSMOS 2251 DEB
1 34317U 93036NP  26037.20613642  .00000484  00000-0  42472-3 0  9999
2 34317  73.9255 304.4349 0337534 283.3557 246.0796 13.65220411843763
Epoch: 2026-02-06T04:56Z
TLE epoch observation values (Epoch: 2026-02-06T04:56:50.186Z)
Latitude
13.4517°
Longitude
-90.05352°
Altitude
1,126.674 km
Speed
7.237 km/s
True Right ascension
08h 02m 00s
True Declination
13° 22' 41"
Sunlit
Object was in full shadow at epoch
Visualization orbit readout
Latitude
Unknown
Longitude
Unknown
Altitude
Unknown
Speed
Unknown
Apparent Right ascension
Unknown
Apparent Declination
Unknown
Sunlit
N/A
Visualization observer readout
Local Sidereal Time
09:24:15
Azimuth
Unknown
Elevation
Unknown
Doppler factor
Unknown
Orbital elements
Apogee altitude
1,264.015 km
Perigee altitude
764.962 km
Semi-major axis
7,392.626 km
Eccentricity
0.03375
Inclination
73.9255°
RAAN
304.4349°
Arg. of periapsis
283.3557°
True anomaly
242.60559°
Mean anomaly
246.0796°
Eccentric anomaly
244.33645°
Mean motion
3.41464 °/min
Orbital period
105.43 mins
BSTAR
0.00042472
Loading maneuver chart data...
Computing Atmospheric mass density...

Documentation

Showing up to 5 results
|